Theta_e
296 296 296 295 295 295 295 294 294 293 293 293 293 293 292 292 292 292 292 292 291 291 289 288 288 287 287 286 286 286 287 287 287 288 287 287 287 286 285 285 285 285
296 296 295 295 295 295 294 294 294 293 293 293 293 293 292 292 291 291 292 291 291 291 290 288 288 287 287 286 286 286 286 287 287 287 287 287 286 285 285 285 285 284
296 295 295 295 295 295 294 294 293 293 293 293 293 292 292 292 291 291 291 291 291 290 289 288 287 287 287 286 286 286 286 286 287 286 286 286 286 285 285 284 284 284
296 295 295 295 295 294 294 293 293 293 293 292 292 292 292 291 291 291 291 290 290 290 289 288 288 287 286 286 285 285 286 286 286 286 285 285 285 284 284 284 284 283
295 296 295 295 295 294 294 293 293 293 292 292 292 292 291 291 291 290 290 290 289 289 288 288 287 287 286 285 285 285 285 285 285 285 285 284 284 283 283 283 283 283
295 295 295 295 295 294 293 293 293 293 292 292 292 291 291 291 291 290 290 289 289 288 288 287 287 286 286 285 285 285 285 285 285 284 284 284 283 283 283 283 283 283
295 295 295 295 294 294 294 293 293 293 292 292 292 291 291 291 290 290 289 289 288 288 287 286 286 286 285 285 284 284 284 284 284 284 283 283 282 282 282 282 282 282
295 295 295 294 294 294 293 293 293 293 292 292 291 291 291 290 290 290 289 289 288 287 287 286 286 285 285 284 284 284 284 284 284 284 283 282 282 282 282 282 282 281
295 295 294 294 293 293 293 293 293 293 292 292 291 291 291 290 290 290 289 289 288 287 287 286 285 285 284 284 284 284 284 283 283 283 282 282 282 282 282 282 281 281
294 294 293 293 293 293 293 293 293 292 292 291 291 290 290 290 290 289 289 288 288 287 286 286 285 284 284 283 283 283 283 283 283 283 282 282 283 283 282 282 282 281
294 293 293 293 293 293 293 293 293 292 291 291 290 290 290 290 289 289 288 288 287 287 286 286 285 284 284 283 283 283 283 283 283 282 282 282 283 283 283 282 282 281
293 293 293 293 293 293 293 292 292 292 291 290 290 290 289 289 288 288 288 288 288 287 286 286 285 284 283 283 283 282 282 282 282 282 282 282 282 282 282 282 282 282
293 293 293 293 293 293 292 292 291 291 290 290 289 289 289 288 288 288 288 288 287 287 286 286 285 284 283 283 282 282 282 281 281 281 281 281 281 281 282 282 282 281
293 293 293 293 292 292 292 291 291 291 290 290 289 289 288 288 288 287 287 287 287 286 286 285 284 284 283 282 282 282 282 281 281 281 280 280 280 280 281 281 281 281
293 293 292 292 292 291 291 291 291 290 290 290 289 289 288 288 288 287 287 286 286 286 285 284 284 283 283 283 282 281 281 280 280 280 280 280 279 279 280 280 280 280
293 292 292 292 291 291 291 291 290 290 290 289 289 288 288 287 287 286 286 286 285 284 284 284 283 283 283 283 283 282 281 280 280 279 279 279 279 279 278 279 279 279
293 292 292 291 291 291 291 290 290 290 289 289 288 287 287 287 286 286 285 285 285 284 284 283 282 282 282 282 282 282 281 280 279 279 279 279 279 279 278 278 277 277
293 292 292 292 291 291 290 290 290 289 289 288 287 287 287 286 286 285 285 284 284 283 283 282 282 282 282 282 281 281 281 280 279 279 279 278 278 278 278 277 276 276
293 292 292 292 291 291 290 290 289 289 288 288 287 287 286 285 285 285 284 284 283 283 282 282 282 281 281 281 281 280 280 280 279 279 279 278 278 278 277 276 275 275
292 292 292 291 291 290 290 289 289 288 288 287 287 286 285 285 284 284 284 283 283 282 282 281 281 281 281 281 281 280 279 279 279 279 278 278 278 277 276 275 275 275
291 291 291 291 290 290 289 289 288 288 287 286 286 285 285 284 284 283 283 282 282 282 281 280 280 280 280 281 281 280 279 279 278 278 277 277 276 276 275 275 275 276
290 290 290 290 289 289 288 288 287 287 286 286 285 284 284 283 283 282 282 281 281 281 280 280 279 279 280 281 281 281 280 278 277 277 276 276 275 275 275 275 276 276
288 289 289 289 289 288 287 287 286 286 285 285 284 283 282 282 282 281 281 281 280 280 279 279 278 279 280 282 282 281 280 278 276 276 275 275 275 275 275 275 276 276
287 287 288 288 287 287 287 286 285 285 284 284 283 282 282 281 281 281 280 280 279 279 279 278 278 278 280 282 282 282 280 278 276 275 275 275 276 276 276 276 276 276
286 286 287 287 287 286 286 285 285 284 284 283 283 282 281 281 280 280 279 279 279 278 278 278 278 278 280 282 283 282 280 278 276 276 276 276 276 276 276 276 276 276
286 286 286 286 286 286 285 284 284 283 283 282 282 281 280 280 279 279 278 278 278 278 278 278 277 277 280 282 283 283 281 278 276 276 276 276 276 276 276 275 275 275
Wind_Speed
43 43 44 43 42 42 41 42 42 43 43 44 45 47 47 47 48 49 50 49 48 47 46 44 42 40 39 37 36 35 34 32 30 28 26 25 24 22 21 19 18 17
43 43 42 42 42 43 43 43 43 43 44 45 46 45 45 45 45 47 50 50 49 49 48 46 44 43 41 40 39 37 36 34 32 30 29 28 26 24 22 20 19 19
44 43 43 44 45 45 44 42 41 43 43 43 44 44 44 44 44 46 48 49 49 49 48 47 46 45 43 42 41 40 38 36 35 32 31 29 27 25 23 21 20 20
46 46 46 46 45 43 41 40 40 42 42 42 43 43 42 42 43 45 46 48 48 48 49 48 48 47 45 43 42 41 40 38 36 34 32 31 28 25 24 22 22 22
46 46 46 45 44 41 39 40 42 43 43 43 43 42 42 42 43 44 45 47 47 47 47 48 48 48 47 45 44 43 41 39 37 36 34 32 29 27 25 24 24 24
43 45 46 46 44 41 40 41 43 43 43 43 42 42 43 43 43 44 45 46 46 45 46 47 48 48 48 47 45 44 43 41 39 37 35 33 30 28 27 26 26 25
43 45 46 46 43 42 42 43 43 43 44 43 42 43 44 44 44 45 45 46 45 45 45 45 46 47 47 47 46 44 43 41 40 39 37 34 32 30 29 28 27 27
45 44 44 43 42 42 43 43 43 44 45 44 43 44 45 45 45 45 45 45 45 45 45 45 45 46 46 46 46 45 43 42 41 40 38 35 33 32 31 30 29 28
43 43 42 41 42 43 44 45 46 46 45 44 45 44 44 45 46 46 45 45 46 45 45 45 45 45 46 46 47 46 45 43 42 41 40 38 36 35 33 32 30 29
41 41 41 42 43 44 46 48 47 46 45 45 45 44 44 45 46 45 45 45 46 46 46 46 46 46 45 45 46 45 45 44 43 42 41 39 38 36 35 34 32 31
39 39 40 43 44 45 47 48 47 45 45 44 44 44 44 45 45 45 45 46 47 48 47 47 46 46 46 45 45 44 43 43 43 42 41 40 38 36 35 34 33 32
39 39 41 43 45 47 47 47 45 44 43 43 44 44 44 44 44 45 46 47 48 48 48 47 47 47 46 46 44 43 42 42 42 41 40 39 37 36 35 33 32 31
40 41 42 44 46 45 44 42 41 41 41 41 42 43 43 43 43 45 47 48 48 47 47 48 47 47 47 46 45 44 43 42 41 40 39 38 36 35 34 32 32 31
40 42 44 45 44 41 38 38 39 40 41 41 41 42 44 44 45 46 46 46 46 47 47 47 47 47 47 47 46 45 45 43 42 40 39 37 35 34 33 32 31 30
40 41 42 41 39 37 37 39 40 41 41 42 43 44 45 45 45 45 45 44 45 46 46 46 47 48 49 49 48 46 45 44 42 41 39 37 35 33 32 32 31 30
37 37 36 35 35 37 38 39 40 40 41 43 44 45 44 44 43 43 44 45 44 44 44 46 47 47 49 51 51 49 46 44 42 40 39 38 36 34 33 32 31 30
33 33 32 32 34 36 36 37 38 39 41 42 42 42 42 42 42 43 45 44 44 45 45 46 46 47 48 50 50 49 47 44 43 41 39 38 37 36 35 33 31 29
29 29 30 32 34 35 36 37 37 38 39 40 40 41 41 41 43 44 44 43 43 44 45 45 45 46 48 48 48 48 47 45 43 41 40 38 37 36 35 33 31 28
26 26 29 32 33 34 35 35 36 37 39 39 40 40 40 41 42 42 42 42 43 43 44 45 45 45 46 47 47 47 46 45 43 42 40 38 37 36 34 32 30 28
25 26 28 30 30 31 31 33 35 37 38 38 38 38 39 40 41 41 42 43 44 44 43 43 43 43 44 45 45 45 45 44 42 40 39 38 37 35 32 31 31 29
24 25 27 27 25 26 29 31 34 34 34 35 36 38 40 40 40 40 41 41 42 42 41 40 41 42 43 43 43 42 42 43 42 40 38 36 34 32 31 31 31 30
23 24 26 24 23 24 27 29 30 31 32 33 34 35 36 36 36 38 38 39 39 40 39 38 39 41 42 42 40 40 41 41 40 38 36 34 32 31 32 32 31 29
23 23 24 24 23 24 27 28 29 29 30 31 31 31 32 33 34 35 36 37 38 39 39 37 37 40 41 40 38 38 39 40 39 36 34 32 31 31 32 32 31 30
23 22 23 23 23 25 27 27 27 28 29 31 32 32 32 32 33 32 33 35 37 38 38 37 38 40 40 38 37 38 40 41 40 36 34 32 30 30 31 31 30 29
23 21 22 23 24 26 26 26 27 28 28 30 31 32 31 32 32 31 31 33 35 37 38 37 38 40 39 37 37 37 39 41 40 37 34 33 31 30 29 29 28 27
23 21 22 23 24 26 25 25 26 26 28 29 30 31 30 30 31 31 31 32 33 35 37 37 38 40 39 37 38 38 39 41 41 38 36 34 33 32 30 29 29 26
Wind_Direction
212 212 213 214 215 215 214 213 212 211 212 212 212 214 214 214 213 211 211 213 213 214 214 214 213 212 211 210 210 209 210 210 209 208 208 209 209 209 208 206 206 206
214 214 214 215 216 217 217 216 215 214 215 215 215 216 216 216 214 213 213 212 212 213 214 213 213 211 210 210 209 209 209 209 209 207 208 209 209 209 209 208 207 206
215 215 216 217 218 218 217 217 217 217 217 217 217 217 217 216 215 215 214 213 212 212 212 212 212 211 211 210 209 209 209 209 208 207 208 209 210 209 208 208 207 207
216 217 218 219 220 220 218 216 217 218 218 218 218 218 217 216 216 215 214 213 212 211 211 211 211 211 210 210 209 209 210 210 209 208 208 208 210 209 208 207 208 207
217 218 219 220 221 221 219 217 218 218 218 219 219 218 217 216 216 215 214 213 212 212 210 209 210 210 210 209 209 208 209 209 209 208 208 208 208 207 207 207 207 207
219 219 220 221 221 220 219 219 220 219 219 219 218 217 217 216 216 215 213 213 212 211 210 209 208 208 208 208 207 208 208 208 208 207 207 208 207 205 206 207 208 209
220 220 220 220 220 219 219 221 221 220 220 220 218 218 217 216 215 215 213 212 212 211 210 209 208 207 207 206 205 206 207 208 207 206 206 206 205 204 205 207 208 209
222 221 220 220 219 219 220 220 221 221 221 218 217 217 216 215 215 214 213 212 211 211 211 210 209 207 206 205 204 205 205 206 206 205 205 204 203 204 204 205 207 209
225 222 219 218 218 219 220 220 221 221 220 218 217 216 215 215 215 213 212 211 210 211 210 210 209 208 207 206 205 205 204 205 205 205 204 204 203 204 204 204 204 206
227 224 220 217 217 219 220 221 221 220 219 218 216 215 214 214 214 212 210 209 209 210 210 210 209 208 207 206 206 206 205 205 205 205 205 205 205 205 204 204 204 205
229 226 222 219 217 219 221 221 220 219 218 217 215 214 214 213 211 209 208 208 209 210 209 209 209 208 207 207 206 206 206 206 206 206 206 207 207 206 205 205 206 207
229 227 225 223 220 220 221 221 220 218 217 215 214 213 213 211 209 207 207 208 210 210 209 208 208 208 207 207 206 206 206 208 208 207 207 207 207 207 207 207 207 208
229 227 226 226 224 222 221 221 219 218 217 215 214 213 212 210 209 208 208 209 209 209 209 208 207 207 207 206 206 206 206 207 208 207 206 206 207 207 206 207 209 209
231 228 227 227 226 223 221 220 218 217 217 216 214 213 213 211 210 209 209 209 208 208 208 208 207 206 205 205 205 206 205 206 206 206 205 205 205 205 206 207 208 210
235 231 228 227 225 222 219 218 217 217 215 215 215 214 214 213 211 210 208 207 207 207 207 206 206 206 205 204 204 204 204 204 204 204 204 203 201 202 204 205 207 209
236 231 228 226 224 222 220 217 216 215 214 214 214 214 213 211 210 208 208 207 206 205 205 205 205 206 206 206 206 205 203 202 202 202 202 202 200 199 200 203 206 209
236 231 227 226 224 222 220 217 215 214 214 214 213 211 211 209 208 207 207 207 205 204 204 204 205 206 206 206 206 205 203 201 200 200 200 200 200 199 199 201 203 206
240 234 228 226 224 222 220 217 215 214 213 212 210 209 208 207 207 207 206 205 204 204 204 204 205 206 206 205 205 204 204 202 199 198 197 198 200 200 200 200 200 202
252 242 234 229 225 222 220 216 213 213 211 210 209 208 207 206 206 206 205 204 203 203 204 205 205 205 204 204 204 204 203 202 200 198 197 198 199 200 199 198 197 196
262 250 242 237 230 224 220 215 213 213 211 210 208 206 205 205 205 205 204 204 204 203 204 204 204 203 202 202 202 202 201 201 200 199 198 198 199 198 196 196 196 195
270 259 251 245 237 228 221 217 215 213 211 209 207 205 206 205 205 204 203 203 203 202 202 203 203 201 200 200 199 197 199 200 199 197 196 195 196 195 194 195 196 196
280 267 258 252 243 232 224 219 217 214 211 209 207 207 207 206 205 204 203 202 202 201 201 201 201 199 198 197 195 193 196 197 195 193 192 191 192 192 194 196 197 197
290 274 263 256 246 234 226 222 218 215 212 208 206 205 205 205 205 204 203 202 201 200 200 200 199 197 196 195 190 188 191 192 190 189 188 188 190 192 194 196 196 197
301 282 267 257 247 237 230 225 220 216 213 209 206 205 204 205 205 203 203 203 201 201 201 200 199 197 195 192 188 187 191 191 187 185 185 186 187 189 192 195 195 197
310 291 273 260 250 242 235 228 222 217 213 210 208 206 205 204 203 201 202 202 203 203 202 201 201 197 194 192 187 187 192 190 185 183 183 184 185 186 188 192 193 194
315 298 281 268 257 248 240 232 225 218 213 209 207 206 204 202 201 200 200 201 202 203 202 203 202 197 194 192 189 189 192 191 187 184 183 182 183 183 185 188 190 192